Wind_Speed
13 12 12 12 12 12 11 11 11 10 11 12 11 12 11 11 12 11 11 12 12 12 12 12 12 13 14 14 15 15 15 14 12 12 14 16 14 13 15 15 14 14 15 16 15 15 16 16 15 17 18 18 17 15 16 18 19 19 19 22 22 16 14 13 8 6 10 11 8 8 11 11 12 15 15 15 16 15 15 15 16 15 14 15 19
13 12 12 12 12 12 11 11 10 10 11 11 12 13 13 13 12 11 11 12 12 11 10 11 12 13 14 14 14 14 15 16 15 12 14 15 14 14 14 14 14 14 14 15 15 14 15 16 16 17 18 18 18 17 18 19 19 19 20 20 20 19 17 13 9 7 10 12 9 8 10 11 12 15 15 14 15 14 13 14 15 15 13 13 16
13 11 11 12 12 11 11 11 11 11 11 11 12 13 13 13 13 12 10 10 11 11 11 12 13 14 14 14 14 14 14 15 16 15 16 17 15 13 14 14 14 14 14 14 15 14 15 16 18 18 17 18 19 18 19 20 19 18 18 19 19 20 19 17 12 8 9 11 9 8 9 10 11 13 14 13 13 14 13 13 15 16 13 12 13
12 11 12 13 12 12 11 11 12 11 11 11 11 12 12 12 12 12 10 10 10 9 10 12 12 12 13 13 13 14 14 13 14 15 15 15 14 13 14 13 12 12 11 12 14 14 12 14 17 17 15 17 19 18 18 19 19 18 18 19 19 19 20 20 18 13 10 10 9 7 8 9 10 12 14 14 13 14 13 13 14 16 15 13 12
13 12 12 12 12 12 12 11 12 11 10 10 9 10 11 9 10 11 10 10 10 9 10 12 12 12 13 13 14 14 14 13 13 14 14 13 13 14 13 14 14 12 13 15 15 14 12 13 17 16 16 18 17 17 18 19 18 19 20 19 19 20 20 20 21 19 14 13 11 8 8 9 9 11 14 14 13 15 15 14 13 15 16 15 13
13 12 11 10 11 11 12 12 11 10 10 10 9 9 9 8 9 9 7 8 9 9 10 11 10 11 12 12 12 13 14 13 13 13 13 11 12 14 14 17 17 14 14 16 13 13 14 14 16 16 16 16 16 16 17 18 18 19 20 19 19 20 19 19 21 21 18 15 13 12 12 10 11 13 14 14 14 16 17 16 14 14 15 15 14
12 12 11 9 9 10 11 11 10 9 9 9 9 9 8 8 9 8 7 8 8 8 9 9 9 9 9 9 10 10 12 14 13 12 11 11 12 14 15 17 18 16 15 14 13 14 15 12 15 16 14 14 16 16 16 16 17 17 18 18 19 19 18 18 21 21 19 18 14 13 13 12 14 15 15 16 15 16 18 17 16 16 15 14 14
11 12 10 8 9 10 10 9 9 8 8 8 9 8 7 7 8 7 6 8 8 8 8 8 7 7 6 7 10 10 10 13 15 13 11 12 13 14 14 14 15 16 17 15 16 17 16 13 16 16 14 14 16 17 17 16 15 16 17 17 16 18 18 18 19 19 18 18 17 15 14 14 17 17 18 19 17 16 18 17 15 17 16 13 12
10 11 9 8 10 10 10 11 9 7 7 8 8 7 6 6 6 6 5 5 6 7 7 9 9 7 6 6 8 10 8 11 15 13 11 12 13 13 13 13 13 16 17 16 16 16 16 15 14 13 15 15 14 15 18 18 16 15 16 17 14 15 16 16 17 18 17 16 16 16 15 15 17 17 17 19 18 16 17 17 16 16 17 14 9
10 10 8 9 9 8 10 12 10 7 6 7 6 6 6 5 4 4 4 3 4 6 7 9 11 10 9 7 7 8 7 9 13 11 10 11 12 12 13 13 14 16 17 17 16 15 15 16 15 14 15 15 14 16 18 19 18 16 15 15 12 11 13 14 14 16 16 15 15 15 14 14 15 16 16 17 17 16 17 17 17 16 17 15 10
11 9 8 10 8 7 8 10 10 8 6 5 5 5 5 4 2 2 3 4 4 5 6 8 9 9 9 9 9 6 6 9 12 10 9 9 10 12 14 13 14 15 15 15 14 14 14 15 15 14 14 15 15 17 16 16 18 17 14 12 10 8 9 11 13 15 15 13 14 13 12 12 14 15 16 16 16 17 17 16 15 16 15 13 9
11 10 11 10 6 6 7 8 9 8 5 5 5 3 3 2 1 0 2 4 3 3 4 4 5 6 6 7 9 5 2 8 12 10 9 8 8 11 12 12 12 12 12 13 13 13 15 15 14 13 15 16 17 17 16 14 17 17 13 11 9 5 7 11 12 13 13 12 12 12 11 12 13 13 14 15 15 16 16 15 14 15 15 12 10
10 11 12 9 7 7 8 7 7 7 6 5 4 3 3 2 2 2 0 2 1 3 4 4 3 5 5 6 8 5 1 5 11 10 9 8 7 9 11 10 9 9 9 10 11 12 14 14 15 15 14 15 17 17 14 15 18 17 12 13 11 4 7 11 12 11 11 11 10 11 10 10 11 11 11 12 12 14 16 14 14 15 15 14 13
11 11 11 9 8 8 8 7 7 7 7 6 4 3 3 4 4 2 1 1 3 4 4 5 5 5 5 6 9 6 1 4 10 10 9 8 5 8 11 10 9 8 9 9 9 9 11 11 13 14 13 14 17 16 14 16 18 15 14 16 14 5 6 10 11 9 9 8 8 9 9 8 8 9 10 9 9 12 14 15 17 18 17 16 15
11 11 11 9 8 8 7 6 6 6 5 5 5 5 4 4 4 3 4 5 4 3 4 5 5 6 5 6 8 7 3 6 10 9 9 8 6 7 9 10 9 8 9 9 7 6 8 10 12 12 11 13 15 14 15 16 15 14 16 18 15 10 8 11 13 11 8 7 7 6 7 6 6 7 8 7 7 9 13 15 17 17 16 16 17
10 11 11 10 9 8 7 6 5 5 5 4 4 5 3 3 4 5 6 7 6 4 5 5 5 6 6 5 7 7 6 7 9 9 9 8 7 7 7 9 10 8 8 8 6 5 6 8 10 11 9 11 13 13 14 15 14 14 16 17 16 13 8 9 13 11 8 7 6 4 5 6 6 7 10 9 8 10 14 15 15 16 15 16 16
10 10 11 10 9 8 7 6 6 5 4 4 4 4 3 3 4 5 6 7 7 6 7 5 4 5 6 6 6 7 7 7 8 9 9 8 7 7 6 8 9 9 8 6 4 4 5 8 11 11 7 9 12 12 12 14 14 14 15 15 15 13 9 9 13 12 8 7 6 4 5 7 6 7 10 12 9 9 13 15 17 18 16 14 12
9 8 9 10 9 8 8 7 6 5 5 5 4 4 4 3 4 5 6 7 8 8 8 6 5 5 6 7 7 7 7 7 8 9 8 8 8 6 6 8 9 9 9 6 4 4 6 9 13 12 8 9 12 11 10 12 13 14 14 13 12 12 12 11 12 14 11 9 8 5 3 6 7 6 8 12 10 9 12 14 16 18 15 12 13
10 10 10 9 9 9 8 7 6 6 6 6 5 5 4 2 3 6 6 8 10 10 8 8 7 8 8 8 8 8 8 7 8 8 8 8 8 6 6 8 8 8 9 6 5 5 4 7 12 15 12 11 11 10 9 10 11 12 12 11 10 11 13 13 14 14 13 11 9 7 6 8 8 6 6 9 8 9 13 14 14 16 15 13 15
12 10 9 9 9 9 8 7 6 6 6 5 5 4 2 2 5 6 7 9 10 10 9 8 9 9 9 8 8 8 8 7 7 8 8 8 8 6 5 7 7 7 8 7 4 6 3 4 10 15 14 11 10 9 9 9 9 9 9 9 9 11 13 15 15 13 12 11 10 8 10 12 9 5 8 11 9 8 11 11 12 14 14 13 14
13 11 10 10 10 10 9 8 8 7 5 5 6 5 4 6 7 7 7 8 8 9 10 10 10 10 9 9 9 9 8 7 6 8 8 7 7 7 4 5 6 5 7 9 5 6 2 2 7 12 13 11 9 7 7 8 8 7 7 8 10 12 14 15 15 13 11 12 11 9 12 15 12 9 11 13 12 11 11 11 11 12 13 12 12
12 12 12 12 11 10 9 8 7 6 6 7 7 7 7 8 8 7 7 7 8 9 11 11 11 11 10 10 10 8 8 7 6 8 8 6 7 7 4 5 5 4 5 8 7 6 2 1 5 10 10 9 8 6 5 6 6 6 7 7 8 12 15 14 13 14 13 11 11 10 12 15 15 14 13 12 12 12 11 10 10 10 10 10 9
10 10 10 10 9 8 7 7 7 7 9 9 8 8 7 8 10 10 7 7 8 10 11 12 12 11 11 10 9 8 7 7 6 6 7 6 7 6 6 6 6 4 3 5 7 6 2 0 4 8 8 7 7 7 6 5 6 6 7 8 8 9 12 12 12 15 15 11 8 9 10 11 13 13 11 10 11 12 10 9 9 9 8 8 7
12 11 9 9 9 8 8 8 8 9 9 9 8 8 9 9 12 11 8 8 10 11 11 12 12 11 11 10 8 6 6 6 6 6 6 6 6 5 6 7 6 6 6 5 5 5 3 4 6 8 7 7 7 8 8 7 6 5 8 15 13 6 7 10 10 13 16 13 9 9 9 9 8 7 6 7 9 10 10 9 10 8 7 7 7
12 11 9 9 9 9 8 8 8 8 9 9 9 10 11 11 11 11 9 9 11 11 11 11 12 12 10 8 7 5 4 5 5 4 4 5 5 5 5 6 6 7 7 5 5 6 7 7 8 7 7 8 8 10 11 10 8 6 7 14 13 6 7 9 7 8 14 14 12 12 10 10 9 6 5 6 5 7 10 11 11 8 6 6 5
11 10 10 9 8 8 8 8 9 10 11 11 11 12 12 12 12 12 12 11 11 11 10 10 12 11 7 6 7 6 4 4 4 3 3 6 6 5 5 5 6 7 8 8 8 9 9 9 8 7 8 9 10 12 14 12 11 10 7 7 9 8 9 8 5 7 11 12 11 12 10 10 11 9 6 4 5 7 11 12 12 12 9 7 6
12 11 11 10 9 8 9 10 11 12 13 12 12 12 12 12 14 15 15 12 10 10 10 10 10 9 7 7 8 6 5 6 5 3 3 5 6 5 5 6 6 7 8 9 8 9 10 10 10 9 10 11 11 11 12 11 11 11 9 4 6 7 8 6 4 7 9 8 9 10 9 9 11 11 8 7 7 8 11 11 12 14 13 11 12
13 12 11 11 11 11 12 13 13 14 13 13 12 11 11 12 15 15 13 11 9 8 8 7 7 9 8 6 4 3 3 4 3 0 3 5 5 4 5 5 5 6 7 8 8 8 9 9 10 11 11 13 12 10 9 8 9 6 3 3 6 5 6 7 5 5 8 7 8 10 9 9 10 10 10 9 7 7 9 10 10 11 12 14 15
13 11 11 11 11 13 13 13 14 14 12 11 11 11 12 13 14 11 7 7 8 8 8 7 7 8 7 3 2 4 4 2 4 7 7 7 6 5 4 5 5 6 7 8 9 8 7 8 10 12 13 14 12 8 6 5 6 6 4 5 6 4 5 9 8 7 8 8 8 10 10 9 9 8 9 8 7 6 8 8 8 11 13 14 13
11 10 10 10 11 13 15 13 13 15 13 10 9 10 11 13 13 11 8 8 8 8 9 9 8 7 5 3 4 6 7 8 10 11 11 10 9 8 7 6 7 8 8 8 9 8 8 9 11 12 13 12 7 5 5 5 6 7 7 6 5 5 6 8 9 9 10 8 7 7 7 8 8 8 8 8 8 6 5 4 5 10 13 12 10
11 12 11 10 10 11 11 8 7 11 11 9 8 9 10 12 13 12 10 10 10 10 10 9 9 8 8 8 8 8 10 12 14 14 12 12 11 11 10 9 9 10 10 10 9 8 8 9 11 12 12 8 3 3 4 2 3 5 6 6 7 6 5 6 7 7 10 10 7 5 5 7 8 8 7 8 8 7 5 5 6 8 11 11 9
12 10 10 10 10 9 7 4 2 5 7 7 7 8 9 10 11 12 12 12 12 12 11 11 11 11 11 12 11 11 12 14 15 15 15 14 13 13 13 12 11 11 11 10 10 10 10 10 11 12 11 7 3 4 6 3 2 3 4 4 6 5 3 4 5 4 7 10 10 5 4 7 8 8 8 8 9 8 6 7 7 8 10 11 8
12 10 11 11 9 7 6 6 6 7 7 7 8 9 9 10 11 12 13 15 15 14 14 14 14 13 13 14 14 13 14 14 16 17 18 17 17 16 15 14 13 12 11 12 11 11 11 11 11 12 12 8 5 5 7 5 2 2 3 3 4 4 2 2 3 1 3 10 13 8 4 4 5 9 8 6 7 8 6 6 7 8 9 11 10
13 12 11 10 8 6 7 9 9 9 9 9 9 10 10 11 12 12 12 14 17 18 18 17 16 16 16 16 15 15 15 15 16 18 18 19 19 17 16 16 15 13 13 14 13 12 12 12 11 11 12 11 8 7 7 5 2 2 3 4 4 4 4 4 2 2 0 8 13 9 5 3 4 7 8 6 5 7 6 4 6 7 7 10 12
14 13 12 12 10 9 9 9 10 10 10 10 10 11 11 12 13 13 13 13 15 18 20 20 19 17 17 16 15 16 16 16 16 17 17 18 18 17 17 17 16 15 16 16 16 16 15 13 12 12 11 11 9 7 7 6 5 5 6 6 5 4 4 3 2 1 1 5 11 10 8 6 4 5 8 7 5 5 6 4 6 7 6 7 11
13 13 13 12 12 11 10 11 11 11 11 11 11 12 12 12 13 14 15 15 15 15 16 17 17 15 15 15 15 15 16 17 17 16 16 16 16 16 17 17 15 14 15 17 18 18 17 15 13 13 11 10 9 9 8 8 7 7 7 7 6 3 2 2 1 2 2 3 6 10 12 8 3 3 8 8 4 4 5 5 6 5 4 5 9
13 12 12 11 11 11 11 12 12 12 12 12 12 12 13 13 14 14 15 15 15 15 14 13 12 11 12 15 16 16 16 17 18 17 16 16 16 17 18 18 16 14 15 16 17 17 16 16 15 14 12 10 9 10 9 9 9 8 8 9 8 6 5 4 3 3 4 3 3 7 12 9 2 1 6 8 4 3 3 4 5 4 3 3 7
13 13 12 11 11 11 11 12 13 13 14 14 14 14 14 15 15 16 16 16 16 15 15 14 13 12 12 14 14 15 15 16 17 17 17 17 18 19 20 20 19 17 16 16 16 15 15 14 13 13 12 10 10 10 10 10 10 10 10 12 12 10 8 7 7 6 5 3 3 7 11 9 4 2 3 7 5 2 3 3 4 6 6 5 6
13 14 14 13 13 13 13 13 13 13 14 14 14 15 15 16 16 16 16 16 16 15 15 15 15 14 13 11 11 13 15 15 16 17 18 19 20 20 20 21 21 20 18 17 17 16 15 14 13 12 12 11 11 11 11 11 12 11 10 10 11 12 10 8 8 8 5 3 3 6 10 10 6 2 3 7 4 3 3 3 2 3 5 5 4
13 14 14 16 17 17 16 16 16 15 15 15 15 15 15 16 16 16 15 15 16 15 15 15 15 15 12 9 10 14 15 14 14 16 18 19 20 20 20 20 21 20 19 18 17 17 16 14 13 13 13 12 12 13 12 11 11 11 10 8 9 11 11 10 10 9 7 5 4 4 7 10 8 2 3 4 2 2 1 6 4 3 2 1 2
13 13 14 16 18 19 18 16 16 16 17 17 16 16 16 16 16 15 16 16 15 15 16 16 16 15 13 11 12 14 15 15 14 15 15 16 16 16 17 17 18 20 20 19 17 16 15 14 14 14 13 13 13 14 14 12 11 10 11 11 11 12 12 11 11 11 9 8 5 4 7 9 8 5 2 2 1 3 7 7 3 2 2 1 1
12 13 13 14 16 18 18 17 15 16 16 17 17 17 17 16 16 16 16 16 16 16 17 17 17 15 13 12 12 14 16 16 15 15 15 16 15 12 12 13 15 17 19 17 16 14 14 14 14 14 13 13 13 14 15 15 13 12 12 12 12 12 12 11 10 10 10 9 7 5 6 7 9 9 7 3 3 8 8 3 1 4 5 3 3
13 14 15 14 14 14 15 15 16 16 16 17 18 18 17 17 17 17 17 18 18 17 17 16 16 17 15 13 13 15 17 17 16 16 16 16 14 13 12 12 12 14 15 13 12 12 13 14 14 14 14 14 14 15 15 16 16 14 13 12 12 13 14 13 11 10 10 10 10 8 6 7 8 9 8 6 8 12 9 3 1 5 7 5 4
16 15 14 15 15 14 15 16 16 16 16 17 17 18 17 16 16 17 18 18 18 17 16 16 17 18 15 13 13 14 17 18 18 16 16 15 14 14 13 12 12 13 12 10 10 11 11 12 13 13 13 14 14 14 15 15 16 15 14 13 13 14 14 14 12 11 11 11 11 10 9 9 9 8 8 9 12 13 10 5 4 4 5 6 3
12 12 13 14 14 15 16 17 18 18 17 17 16 16 16 16 16 18 18 18 17 17 16 16 16 17 15 13 15 17 20 21 19 18 17 17 16 14 13 13 13 13 12 11 10 11 11 12 13 13 13 14 15 15 15 15 16 16 15 15 14 14 15 15 14 12 11 12 12 12 12 12 12 10 10 11 12 10 8 8 8 6 4 4 1
14 14 14 15 15 15 16 17 17 17 16 15 16 16 16 16 17 18 18 17 16 16 16 15 15 16 16 15 15 18 21 22 20 18 18 17 16 15 14 14 14 13 13 14 13 12 12 13 14 15 14 14 14 15 15 15 16 16 16 16 15 15 16 16 15 14 12 12 13 14 15 15 14 14 13 12 11 9 8 9 8 6 3 3 3
16 16 16 16 16 16 17 17 16 16 16 16 17 17 16 16 17 16 16 16 17 17 18 18 17 17 16 17 17 18 19 19 18 17 16 16 16 16 15 15 15 15 15 16 16 15 14 15 15 16 16 15 15 15 14 15 16 17 17 16 16 15 15 14 15 14 14 14 13 14 15 17 18 16 13 11 10 10 9 9 8 6 7 8 8
17 17 17 17 17 17 17 17 16 16 16 16 16 17 17 18 17 16 16 17 18 18 19 19 18 17 16 17 19 19 18 16 16 15 15 15 16 17 16 16 15 15 16 17 18 17 17 17 18 18 17 16 17 17 16 16 16 17 18 18 17 17 16 15 15 14 15 16 15 13 12 14 16 15 14 14 13 11 10 10 9 7 8 9 7
17 17 16 16 17 17 17 17 17 16 16 16 16 17 19 18 17 17 17 17 18 19 20 20 20 18 17 17 18 18 18 18 18 17 16 16 16 17 18 18 18 18 19 21 21 20 20 20 20 19 17 16 17 18 17 17 18 18 18 19 19 18 18 18 16 15 15 17 16 13 11 10 11 11 12 13 14 11 9 9 9 9 9 9 7
16 16 16 16 17 17 17 18 18 18 18 18 18 18 19 18 17 17 17 18 20 22 22 21 21 20 19 18 17 17 16 17 17 16 16 16 16 17 19 20 21 22 23 23 22 20 21 22 23 21 19 18 19 19 19 19 19 19 19 20 20 20 21 20 17 16 15 16 15 12 12 11 11 10 10 12 13 11 9 8 9 10 11 10 9
16 16 17 18 18 18 18 19 19 19 19 19 18 18 19 19 18 16 16 19 22 21 19 17 16 16 16 17 16 15 15 16 18 18 18 17 17 18 18 18 19 20 22 22 22 22 22 23 23 23 20 19 20 21 20 19 20 20 20 22 22 21 22 22 20 18 18 17 15 13 12 12 13 11 9 10 11 10 10 10 10 10 11 10 9
Wind_Direction
106 103 100 97 92 89 85 82 80 79 83 86 83 76 69 67 72 68 55 57 62 58 52 46 45 46 40 35 34 29 25 25 27 36 37 26 23 29 23 19 25 29 32 28 22 26 25 17 14 7 1 5 9 9 9 8 5 1 357 352 349 2 24 16 357 341 342 349 358 9 18 22 26 25 24 27 32 34 36 40 43 43 42 41 38
107 105 102 98 94 91 90 90 91 85 83 84 83 81 75 68 70 70 63 60 59 56 54 50 49 50 44 37 36 32 26 22 16 25 42 32 23 28 22 17 22 24 32 31 22 29 30 15 11 17 11 6 8 9 7 6 5 2 2 359 354 1 13 12 2 348 337 342 357 13 19 26 29 25 23 26 30 31 34 34 32 38 43 36 33
108 113 113 106 99 95 92 93 96 91 83 78 77 80 80 77 77 74 68 68 65 58 54 50 50 54 51 41 37 32 28 25 16 19 33 29 22 28 24 16 20 22 26 27 21 29 39 26 15 15 17 11 8 7 7 5 2 359 1 2 358 359 2 360 355 348 332 333 349 10 18 27 31 26 22 24 27 26 30 33 28 31 39 35 29
117 117 112 106 100 97 95 95 95 92 86 81 81 83 83 84 85 80 73 74 72 66 65 58 50 54 55 46 37 28 24 24 17 16 25 23 17 23 23 16 15 18 21 22 22 24 39 48 30 11 15 20 12 6 5 4 1 1 2 1 0 359 358 355 354 349 336 330 344 9 23 28 31 29 24 23 27 26 25 32 29 25 31 35 35
117 104 98 98 99 99 98 95 93 93 92 89 88 90 89 87 87 87 88 85 73 62 65 62 49 46 52 51 41 30 21 17 13 17 23 21 17 16 17 12 10 21 29 24 23 15 18 50 47 23 16 18 12 8 7 3 2 6 4 0 359 357 356 355 354 352 346 335 339 6 29 33 36 35 30 26 27 26 20 24 27 22 24 30 36
117 113 110 111 115 114 110 105 102 104 104 99 93 91 89 79 72 73 77 81 77 65 62 62 51 44 45 49 46 34 24 20 15 17 20 18 17 12 10 14 13 19 28 25 23 13 11 38 51 37 24 14 8 11 10 5 4 7 5 360 357 356 355 356 355 353 350 344 352 15 18 22 36 35 31 31 31 24 14 12 16 17 20 23 25
122 123 122 130 130 119 112 109 108 105 102 103 99 92 88 79 75 65 39 36 52 63 69 66 58 50 36 40 54 43 28 27 23 18 13 8 9 7 8 17 16 7 9 17 24 19 17 39 50 40 27 13 7 9 13 12 7 5 3 359 358 357 355 357 357 355 352 349 359 11 6 19 37 31 27 32 32 24 12 4 3 6 12 18 18
134 125 125 131 116 106 107 106 104 103 105 108 102 94 88 79 77 73 47 33 33 40 47 38 39 52 38 40 64 54 29 27 28 24 17 9 7 4 3 12 17 9 7 13 21 20 22 41 51 40 24 14 10 6 7 10 8 5 2 357 359 2 359 359 1 0 358 353 356 3 12 33 38 30 27 26 22 19 12 360 356 359 1 9 20
138 129 132 122 104 107 120 118 114 115 118 115 108 105 104 91 79 77 67 42 16 8 9 2 3 27 39 46 67 60 35 26 28 28 24 15 10 3 358 5 16 15 11 12 17 18 15 22 32 29 19 16 15 7 1 2 3 4 359 354 358 5 4 6 8 5 2 358 359 6 18 31 29 24 27 21 11 10 7 0 359 358 354 358 15
136 135 139 122 107 106 115 119 121 125 128 123 116 112 106 96 84 71 62 46 11 352 354 357 360 13 19 13 32 54 47 25 25 34 33 19 13 5 358 5 20 22 16 14 17 17 10 6 5 8 15 20 20 12 2 355 353 356 354 349 353 6 9 13 17 13 9 7 8 11 18 24 19 19 24 15 6 4 1 359 359 354 352 356 2
137 136 125 113 114 116 115 119 123 130 138 127 115 109 102 98 87 50 48 68 53 6 355 1 359 3 5 357 2 31 48 23 21 35 34 17 13 9 1 6 21 24 18 12 12 15 14 6 357 3 22 28 21 11 2 352 347 349 349 347 353 14 17 17 23 19 15 18 17 16 21 22 16 17 18 8 1 358 354 355 354 350 350 351 347
134 134 120 117 140 147 129 123 125 134 141 126 122 131 125 126 159 52 41 59 50 345 335 351 352 351 347 344 351 1 27 15 14 23 25 13 10 10 5 8 20 25 21 13 12 17 17 6 354 5 24 21 9 2 359 353 347 344 344 345 352 32 42 29 29 23 17 21 21 20 23 17 10 13 11 359 353 350 348 349 349 345 341 338 335
142 138 130 142 166 149 130 134 142 144 144 142 157 172 162 200 245 252 280 41 351 296 304 321 333 340 326 323 339 337 289 4 5 10 17 15 13 13 9 7 17 30 28 19 16 18 18 8 358 6 16 9 3 3 359 356 353 348 345 345 347 45 70 37 29 25 18 15 14 17 18 9 3 3 358 351 345 344 344 343 341 336 329 323 322
152 146 144 161 168 143 139 156 153 147 155 163 177 197 203 227 253 274 292 271 262 269 304 322 323 328 323 319 329 329 291 3 357 359 8 12 14 17 10 0 5 26 30 24 22 19 16 10 2 7 12 8 8 6 360 0 360 352 345 346 349 19 62 36 29 29 24 16 11 9 3 358 355 349 349 353 347 342 341 338 332 324 316 313 310
160 159 159 167 165 151 156 165 153 155 173 177 186 210 224 243 280 327 330 299 276 257 291 311 313 318 322 319 325 330 348 360 353 350 355 2 8 12 4 351 353 12 25 21 19 21 19 13 10 12 11 10 11 6 1 3 1 350 344 345 355 16 43 44 37 34 35 26 13 8 4 2 5 360 1 7 6 357 349 341 334 325 318 313 303
171 170 166 167 165 162 166 174 168 165 177 191 208 221 230 269 297 311 309 303 304 295 288 292 301 314 319 313 318 325 323 329 341 343 344 350 1 3 354 345 346 359 17 19 19 36 34 22 21 21 13 12 13 6 5 9 6 0 355 352 1 16 35 43 28 21 26 19 9 31 38 20 12 13 12 8 7 7 359 353 355 350 341 328 309
178 176 171 171 172 172 174 183 185 172 182 213 230 241 248 263 280 285 286 292 299 300 296 293 293 307 315 312 315 319 309 306 322 336 337 338 348 353 343 341 345 346 358 21 39 58 57 42 32 27 21 20 17 8 11 16 13 9 4 358 3 9 14 20 9 358 358 356 350 18 43 19 4 6 14 13 7 1 356 359 6 3 354 342 336
178 182 181 178 177 180 183 189 192 188 201 217 227 241 244 247 267 275 277 281 283 284 287 289 298 309 313 310 309 308 300 298 309 323 329 329 338 346 333 334 343 340 344 19 69 84 74 54 36 30 31 26 17 13 20 21 15 11 5 2 9 8 2 358 348 343 350 351 341 338 353 359 350 343 8 16 14 14 14 13 13 7 358 351 352
177 186 191 182 177 185 191 192 202 209 212 216 228 238 229 228 267 273 277 282 285 289 295 303 317 321 312 305 305 304 300 297 302 315 325 324 328 338 333 331 341 338 335 5 72 90 84 57 37 31 33 29 17 16 25 22 13 10 7 9 13 5 356 346 334 337 350 352 345 342 333 335 335 330 358 13 17 26 26 19 12 6 3 5 6
172 181 186 174 173 187 191 193 210 219 215 222 244 247 229 240 261 266 276 285 294 309 319 319 318 313 307 303 299 297 298 298 299 309 320 325 324 327 329 330 342 345 325 327 57 89 92 56 39 28 24 26 20 15 24 24 12 6 8 8 359 347 346 346 339 338 345 347 348 355 349 346 351 9 20 23 26 27 22 16 11 10 11 15 14
164 173 174 169 173 183 186 195 210 213 217 242 259 262 266 267 262 258 266 279 296 310 313 310 306 303 304 306 301 296 296 298 295 296 305 324 326 315 309 312 326 345 325 319 5 65 69 12 26 18 14 21 21 12 22 27 14 1 359 1 358 351 348 348 346 344 347 355 7 13 359 357 12 29 20 16 18 16 13 10 5 6 9 9 10
165 170 171 172 179 181 182 196 207 206 218 237 247 252 262 274 279 277 280 290 300 305 305 304 302 303 304 302 300 302 304 300 288 281 290 313 319 306 292 284 292 323 334 324 344 15 15 338 15 7 1 7 13 8 8 16 12 358 348 347 358 3 0 358 357 354 353 4 19 18 0 0 17 26 13 5 7 5 3 1 356 359 5 4 7
165 170 173 173 176 176 179 195 207 213 221 227 239 254 262 275 283 283 287 298 299 299 301 301 300 302 306 303 300 302 306 305 288 273 283 304 310 296 279 272 277 289 300 305 325 342 342 253 351 350 343 343 354 352 340 347 0 3 0 353 345 351 2 9 8 357 353 1 18 17 8 10 21 22 9 356 352 350 351 350 348 351 358 360 6
166 178 182 175 173 176 184 199 211 222 227 226 234 251 256 264 275 281 288 296 295 291 291 295 297 295 294 297 302 306 310 308 296 280 281 300 312 308 287 273 269 269 269 277 309 315 289 289 314 324 319 315 325 328 320 323 332 341 6 5 355 351 21 23 15 358 352 356 10 17 17 15 17 17 9 355 344 346 354 348 337 340 347 350 354
167 178 181 179 182 184 190 206 218 230 241 240 237 244 251 256 266 277 282 281 281 282 284 287 286 279 275 285 296 296 297 299 290 275 280 299 307 309 299 282 270 269 262 253 271 283 284 296 305 307 307 304 305 309 307 305 307 316 6 13 11 31 46 28 21 8 356 353 2 12 10 3 356 348 349 354 347 350 356 347 336 339 340 334 336
175 179 178 180 188 192 197 211 221 230 241 246 244 247 254 258 262 269 272 269 268 271 275 277 274 269 261 263 269 262 252 262 258 237 268 300 297 293 302 294 275 272 266 256 260 270 275 285 290 291 302 304 296 294 292 287 287 285 290 343 8 17 16 17 52 47 12 354 355 3 360 350 347 339 336 9 26 9 360 352 344 345 346 342 335
178 182 180 180 188 201 211 219 226 233 238 243 249 256 260 263 263 257 252 253 257 260 263 268 272 272 260 247 251 250 226 216 207 194 248 283 276 268 289 296 281 273 273 269 270 271 269 276 283 288 298 303 297 291 289 289 293 282 267 299 1 355 345 357 57 62 31 2 344 348 347 343 346 347 358 28 36 16 4 355 342 344 352 348 331
184 184 183 184 193 205 214 219 224 232 237 238 244 256 261 265 271 264 246 238 244 252 261 267 269 274 270 250 250 282 245 193 170 26 291 276 267 260 272 284 282 279 277 272 273 276 273 274 279 282 287 290 290 294 296 298 305 298 279 0 3 340 339 2 30 50 35 14 341 334 344 354 355 358 6 10 13 22 22 7 343 343 351 342 330
196 188 184 192 203 208 217 224 222 225 237 240 239 249 256 260 274 288 280 254 247 251 257 255 251 267 288 307 310 309 306 305 328 325 309 291 285 273 250 238 244 261 268 262 262 268 270 268 266 266 266 266 272 295 318 320 328 344 359 355 347 354 20 26 23 5 358 4 354 343 351 2 1 2 1 347 342 16 31 17 350 339 337 336 343
206 213 213 213 214 212 219 227 218 212 223 236 235 244 254 255 262 275 275 261 258 257 253 247 241 251 273 280 273 282 290 295 301 306 304 298 294 284 266 247 240 251 261 265 267 269 269 268 268 266 263 260 265 308 336 347 350 343 337 337 356 36 58 45 26 350 324 328 347 347 349 358 358 359 355 340 340 4 13 7 2 344 330 336 7
207 227 231 225 226 229 231 230 205 198 212 230 237 245 258 260 259 259 253 246 250 252 247 241 239 242 249 259 271 278 281 284 290 294 296 295 292 284 276 265 255 258 264 269 273 273 265 263 268 270 269 269 284 311 306 315 326 315 318 339 360 22 45 39 24 347 312 314 332 343 357 8 1 349 344 340 342 354 1 8 17 355 336 344 13
215 225 227 227 237 252 262 272 248 219 225 235 240 248 261 265 263 259 249 241 241 244 243 243 244 245 250 259 269 276 279 284 287 288 288 289 288 283 277 269 262 260 264 265 266 265 263 264 272 278 278 276 284 288 279 259 257 300 330 350 340 338 2 10 359 335 314 319 323 325 12 23 360 336 335 343 342 347 14 31 20 4 355 349 352
223 225 228 237 249 265 278 281 276 266 258 250 245 248 253 258 263 262 250 238 235 237 239 241 244 247 251 255 259 265 273 279 282 284 286 286 284 280 274 269 264 259 259 262 264 264 265 267 272 279 282 278 262 262 271 270 255 294 313 319 305 287 260 293 318 337 330 319 315 322 29 44 346 324 328 344 341 337 8 49 34 14 4 343 335
224 232 238 248 258 264 265 266 265 264 262 258 256 257 257 258 266 270 257 238 233 236 237 238 242 246 250 253 257 261 267 273 278 281 282 281 281 279 272 267 263 258 255 256 256 255 258 264 267 269 273 276 266 250 257 268 253 236 261 279 285 269 231 210 205 150 2 313 316 336 30 37 328 322 328 339 346 339 350 46 55 34 11 340 333
219 230 240 247 253 255 256 258 259 259 257 254 254 257 259 262 266 269 264 249 239 237 236 236 239 245 249 251 256 261 266 271 275 276 275 275 276 275 269 261 255 253 253 254 252 250 251 258 266 266 263 267 266 253 248 251 239 231 245 257 262 258 231 206 194 128 87 308 313 325 337 335 333 333 324 325 347 350 340 14 50 45 24 343 327
218 227 235 239 244 250 253 255 256 256 255 256 258 257 258 260 263 266 267 263 256 252 245 239 240 245 246 246 251 258 264 268 270 270 270 269 269 267 262 254 246 245 248 250 252 253 252 251 258 265 262 256 254 255 255 251 240 232 235 241 243 256 285 281 245 158 183 252 293 305 308 313 340 348 320 317 342 353 335 359 33 37 31 357 334
220 228 235 238 241 246 251 255 258 259 259 259 260 261 262 263 266 271 275 275 274 273 269 262 256 248 241 243 248 253 257 261 264 264 263 263 264 263 257 249 243 240 243 246 249 250 246 241 243 251 254 247 242 245 250 255 251 237 228 235 241 251 275 270 235 224 247 247 257 290 295 291 266 300 308 304 304 312 322 0 13 340 322 14 6
220 228 234 238 244 248 251 255 256 256 258 258 258 259 261 261 262 265 268 272 273 272 270 269 264 252 246 247 248 245 247 251 254 257 259 261 262 261 256 250 246 243 244 247 250 250 250 250 250 249 245 239 237 237 239 246 253 249 240 235 228 224 242 250 232 231 253 252 238 273 283 277 242 188 284 287 287 336 0 15 15 341 336 16 28
221 230 234 237 243 248 253 259 260 257 255 254 252 251 253 255 257 259 260 264 268 268 267 266 262 257 254 248 235 232 237 243 248 253 258 261 262 260 256 250 245 243 244 248 251 251 253 258 261 257 247 237 232 231 232 236 244 251 253 236 214 211 225 228 206 200 206 204 233 274 287 286 277 233 243 274 295 36 16 331 321 322 334 0 9
224 232 236 238 242 245 247 251 256 258 258 258 256 254 253 253 256 260 263 265 267 268 267 265 265 266 263 252 237 233 232 235 247 255 257 256 255 254 254 250 245 242 242 242 243 244 246 251 255 256 253 244 232 226 227 232 238 245 247 234 218 220 223 210 194 192 189 181 199 257 286 289 287 248 203 257 293 94 271 281 266 231 249 278 324
227 235 240 242 243 241 239 242 248 251 252 254 256 257 257 258 259 262 266 269 272 276 276 272 271 270 265 255 249 242 233 234 249 262 266 263 254 245 245 249 246 240 235 234 235 237 241 248 253 250 248 247 237 227 224 227 233 237 233 223 219 223 224 214 205 201 192 182 189 230 264 278 294 321 322 275 249 245 263 275 280 262 262 245 276
231 239 247 253 249 238 232 237 247 252 253 255 257 257 258 260 263 265 267 270 271 271 272 273 276 275 269 260 257 252 243 242 251 261 268 271 267 256 249 250 249 246 242 238 235 232 233 241 247 244 243 246 239 226 221 219 221 229 232 222 217 222 226 223 218 211 198 186 187 212 247 266 285 298 298 284 268 274 273 263 207 257 270 271 258
235 238 244 253 255 246 240 243 248 249 250 253 256 257 256 257 260 264 267 268 266 263 263 269 275 274 267 262 262 255 244 242 249 259 263 264 264 265 266 263 263 266 263 252 241 237 233 234 237 238 243 247 239 228 225 222 217 222 230 225 219 224 226 218 214 217 209 195 189 198 220 241 260 275 279 271 265 266 260 219 201 281 290 284 246
231 234 239 246 251 252 255 258 256 254 254 256 257 260 260 259 261 265 266 266 267 268 268 270 273 274 268 258 254 252 244 241 247 258 265 264 260 260 261 259 261 269 270 260 252 249 240 231 232 237 243 246 241 233 231 227 217 216 223 225 224 228 227 216 209 213 212 201 193 197 206 214 227 248 265 269 269 269 265 251 238 262 290 293 252
248 247 248 250 250 249 251 254 253 251 253 257 260 262 263 263 264 265 265 265 266 268 267 265 267 272 270 252 237 236 238 240 244 249 254 257 258 257 259 260 260 265 270 270 266 261 250 239 237 238 239 242 241 235 232 230 221 216 219 223 225 231 233 223 211 210 210 202 196 200 203 204 207 214 229 247 259 265 265 258 244 231 244 272 189
260 260 259 258 256 254 253 252 250 248 248 253 258 260 261 262 262 260 261 265 267 269 272 272 268 269 268 258 242 231 229 233 241 248 252 255 256 256 258 258 254 255 264 268 266 264 259 252 246 241 239 240 239 233 228 228 224 218 217 220 223 233 238 226 207 203 208 206 206 212 210 203 203 208 215 229 245 248 246 254 262 263 259 251 198
254 258 261 264 264 263 261 257 253 251 251 252 256 259 263 267 268 267 268 271 271 269 266 263 258 257 260 262 260 248 236 234 243 252 258 260 260 257 254 252 248 247 254 261 260 258 258 259 255 249 244 243 241 235 231 230 227 220 216 216 220 230 236 221 201 200 207 206 212 225 220 206 203 206 204 212 233 243 242 249 261 261 253 248 230
255 255 256 258 262 264 265 263 259 257 255 254 255 258 261 264 267 270 270 271 272 271 266 260 254 250 250 254 257 257 254 254 257 261 263 263 261 257 253 252 251 248 249 256 261 261 261 262 261 254 247 245 243 237 231 230 228 221 217 217 218 222 226 221 212 212 212 203 206 222 221 202 196 198 198 204 218 226 232 241 244 237 240 250 239
255 257 257 259 262 263 265 266 265 263 262 262 260 258 256 254 254 257 262 266 270 271 270 266 258 250 246 247 250 255 260 261 258 258 260 261 260 259 255 251 248 245 246 252 259 261 261 262 263 258 253 250 247 239 231 228 227 223 219 219 218 217 220 224 224 220 209 197 198 214 224 209 197 196 197 202 207 209 214 223 223 217 227 246 249
254 258 260 262 265 266 267 268 268 266 264 264 263 261 260 257 251 251 258 266 267 265 264 262 254 246 244 246 245 249 260 266 265 264 266 266 265 264 259 250 247 248 251 253 254 253 253 255 257 256 255 254 250 244 235 228 226 223 219 220 222 221 220 221 224 221 211 199 198 214 227 221 209 199 188 189 197 207 214 218 219 224 231 244 255
256 259 259 258 260 262 264 266 268 267 266 266 264 265 267 266 260 256 258 263 264 264 265 267 264 260 259 258 250 244 251 261 264 266 267 265 265 267 264 254 247 246 250 253 254 252 252 253 252 251 253 253 249 243 236 228 226 224 219 218 222 224 220 218 219 222 219 210 205 207 211 208 207 207 199 190 196 207 211 212 223 237 238 234 243
Height
835 836 836 837 837 838 838 839 839 840 840 840 841 841 842 842 842 842 842 842 842 842 842 841 840 840 840 839 839 838 837 836 835 834 834 833 832 832 831 830 829 829 828 828 827 826 825 824 823 821 819 817 815 814 813 812 811 809 808 806 803 802 801 801 800 799 798 798 797 797 796 795 795 794 793 792 792 791 790 790 789 789 788 787 786
835 836 837 838 838 839 839 840 841 841 841 841 841 842 842 843 843 843 843 843 843 843 843 842 841 841 841 841 840 840 839 837 836 835 834 834 833 833 832 831 830 829 829 828 827 827 826 825 824 822 821 819 817 816 815 814 812 811 809 807 805 804 802 802 801 800 799 798 797 797 796 796 795 795 794 793 793 792 791 791 790 789 789 788 787
835 837 837 838 839 840 841 841 842 842 842 842 842 842 843 844 844 844 844 845 844 844 843 843 842 842 842 842 841 841 840 839 837 836 835 835 834 833 833 832 831 830 829 829 828 827 826 826 825 824 823 821 819 818 817 816 814 813 811 809 808 806 804 803 802 801 800 798 797 797 796 796 796 795 795 794 793 793 792 792 791 790 790 789 788
835 836 837 838 839 841 842 842 843 843 843 843 843 843 844 845 845 845 845 845 845 844 844 843 843 842 842 842 842 842 841 840 838 837 836 836 835 834 833 832 831 830 829 828 828 828 826 826 826 825 824 823 822 820 819 818 816 814 813 811 809 808 806 804 802 801 800 798 797 796 796 796 796 796 795 794 794 793 792 792 792 791 790 790 789
835 836 838 839 840 842 843 843 843 843 843 844 844 844 845 845 845 846 846 845 845 845 844 844 844 843 843 843 843 843 842 841 839 838 837 837 835 834 833 832 831 830 829 829 828 828 827 826 825 826 825 824 824 822 821 819 818 816 814 812 811 809 807 805 803 802 800 798 797 796 796 796 796 796 795 794 794 793 792 792 792 792 791 790 790
835 837 839 840 841 842 842 843 843 844 844 844 845 845 846 846 846 846 846 845 845 845 845 845 845 844 844 844 844 844 843 842 840 839 838 837 836 835 834 833 832 831 830 830 829 828 828 827 826 826 827 826 825 823 822 820 819 817 816 814 812 810 808 807 804 802 801 799 797 797 796 796 796 796 796 795 795 794 793 792 792 792 791 791 790
835 838 839 840 840 841 841 843 843 844 845 845 846 846 846 847 847 847 846 845 845 845 845 845 845 845 845 845 844 844 844 843 841 840 839 838 837 836 835 834 834 832 831 830 829 829 828 828 827 827 827 827 826 824 823 822 820 819 818 816 814 812 810 808 806 804 802 800 799 798 797 796 796 796 797 796 796 795 795 793 792 792 792 791 791
836 838 839 839 840 841 842 844 844 845 846 846 846 847 847 848 848 848 848 847 846 846 846 846 846 846 845 845 844 845 844 844 842 841 840 839 838 837 836 835 835 834 832 831 831 830 830 829 828 828 828 827 826 825 824 822 821 820 819 817 816 814 812 810 808 806 804 802 801 799 798 798 798 798 798 797 797 797 796 795 794 793 793 792 791
836 837 839 839 840 841 843 844 846 846 846 846 847 848 848 849 848 848 849 848 847 847 847 847 846 846 846 845 845 845 845 844 843 842 841 840 839 838 836 836 836 835 834 833 832 832 832 831 830 829 829 828 827 826 825 823 822 821 819 818 816 815 813 812 810 809 807 805 803 801 800 800 800 800 800 799 799 799 798 797 796 794 794 793 792
836 837 839 839 841 842 843 844 846 847 847 847 848 848 848 849 849 849 848 848 848 848 848 847 847 846 846 846 845 845 845 845 844 843 842 841 840 839 837 837 836 836 835 835 834 833 833 832 831 830 829 828 828 827 826 825 823 821 820 818 817 816 815 814 812 811 809 808 806 805 804 803 803 803 802 802 802 801 799 798 797 796 795 794 793
836 838 839 840 842 843 843 844 846 847 847 848 848 848 849 849 849 849 848 848 849 849 849 848 847 847 847 846 846 845 845 845 845 844 843 842 841 839 838 837 837 837 837 836 835 834 834 833 832 831 830 829 828 828 827 826 824 822 820 818 817 817 816 815 814 813 812 811 810 808 807 807 806 805 804 804 803 802 801 800 799 797 796 795 794
837 839 839 841 843 843 844 845 846 847 848 848 849 849 849 849 849 849 849 849 849 849 849 849 849 849 848 847 847 846 845 845 845 844 843 842 841 840 839 838 838 838 837 837 836 835 835 834 833 832 830 829 829 828 827 826 824 822 820 819 817 817 817 816 815 814 813 813 812 811 810 809 808 807 806 805 804 803 802 800 799 798 797 797 796
838 839 840 842 843 843 844 845 846 847 848 849 849 849 849 850 849 849 849 849 850 849 849 849 849 849 849 848 847 846 845 845 844 844 843 842 842 840 839 839 838 838 838 837 837 836 836 835 834 833 831 830 829 828 827 826 824 822 820 818 817 817 817 816 816 815 814 814 813 812 811 811 810 809 808 806 805 804 802 801 800 799 798 797 796
838 839 841 842 843 843 845 845 846 847 847 848 849 849 849 849 849 849 849 849 849 849 849 849 849 849 848 848 847 845 845 845 844 844 843 843 842 840 839 839 838 838 837 837 837 837 836 836 834 834 832 831 830 829 827 826 824 822 820 818 817 817 817 816 816 816 815 814 814 813 812 811 810 809 808 807 806 805 804 802 801 799 798 797 796
838 839 841 842 843 844 844 845 846 847 847 848 848 849 849 849 849 849 849 849 850 849 849 849 848 848 848 847 847 846 845 844 844 844 843 842 842 841 840 839 839 838 837 837 837 837 836 836 835 834 833 831 831 829 828 827 825 823 821 819 818 817 817 817 817 816 815 815 814 813 812 811 810 809 808 807 806 805 804 803 802 800 798 796 794
838 839 840 841 843 843 844 845 846 846 847 848 848 848 849 849 850 850 849 850 849 849 849 848 848 848 847 847 846 846 845 844 844 844 843 842 842 841 840 840 839 838 837 837 836 836 836 836 835 835 833 832 831 830 829 827 826 824 822 820 819 819 818 818 817 816 816 815 814 813 812 811 810 809 808 807 806 805 804 803 802 800 798 796 793
838 839 840 841 842 843 844 845 845 846 847 847 848 848 849 849 850 850 850 849 849 848 848 847 847 847 847 846 846 845 845 844 844 843 842 842 841 841 840 840 839 838 837 836 836 836 836 836 835 835 834 832 831 830 829 828 826 825 824 822 821 820 819 819 818 816 816 814 813 813 812 811 810 809 808 807 806 806 805 804 802 800 799 797 794
838 838 840 841 842 843 844 844 845 846 846 847 847 848 848 849 850 850 850 849 848 848 847 846 847 846 846 846 845 845 844 843 843 843 842 841 841 840 840 840 839 838 837 836 836 836 836 836 835 835 834 832 832 831 830 829 827 826 825 824 822 821 820 820 818 817 816 814 813 813 812 811 810 809 808 807 806 806 806 805 804 802 801 799 797
837 838 839 840 841 843 843 844 845 845 846 846 847 847 847 848 849 849 849 849 848 848 847 846 846 845 845 845 844 844 843 842 842 842 841 841 840 840 840 839 839 838 837 836 836 835 836 836 835 834 833 833 832 831 830 829 828 827 826 825 824 823 822 821 819 817 816 815 813 813 812 811 810 809 808 808 807 807 807 806 805 804 803 801 799
836 838 839 839 841 842 843 844 845 845 846 846 846 847 847 847 848 848 848 848 847 847 847 846 845 845 845 844 843 843 842 842 841 841 841 841 840 839 839 839 838 838 837 836 836 835 835 835 835 834 834 833 832 831 830 830 828 828 827 826 825 824 823 821 819 817 817 815 814 813 812 811 810 809 809 809 808 808 807 807 806 805 804 803 802
835 837 839 839 841 842 842 844 844 844 845 846 846 846 846 847 847 847 847 847 847 846 846 845 845 845 844 843 843 842 842 841 840 840 840 840 839 839 839 839 838 838 837 836 835 835 835 835 835 835 834 833 833 832 831 830 828 828 828 827 825 824 823 821 819 818 817 816 815 814 813 811 810 810 809 809 809 808 808 808 807 806 805 804 803
835 837 838 839 840 841 842 843 844 844 845 845 845 846 846 846 846 846 846 846 846 846 846 845 844 844 843 842 842 841 841 840 840 839 839 839 839 838 838 838 838 837 837 836 835 835 835 835 835 835 834 834 833 832 831 830 828 828 828 827 826 825 823 822 820 819 818 817 816 815 814 813 812 811 811 811 810 810 809 808 808 807 806 805 805
836 837 838 839 840 841 842 843 843 844 845 845 845 845 845 845 845 845 845 845 845 845 845 844 844 843 842 841 841 840 840 839 839 839 839 838 838 837 837 837 837 837 837 836 836 836 835 834 835 835 834 833 833 832 831 830 828 828 827 827 826 825 824 823 822 820 818 818 817 816 815 815 814 813 813 812 812 811 810 809 808 807 807 806 805
836 837 838 839 839 841 842 842 843 843 844 844 844 845 845 845 844 844 845 844 844 844 844 843 843 842 841 841 840 840 839 838 838 838 838 837 837 837 837 836 836 836 836 836 836 835 835 834 834 834 834 833 832 831 831 830 829 827 826 826 825 825 824 824 823 821 820 819 818 817 817 816 815 815 814 813 812 811 810 809 808 807 807 806 805
836 837 838 838 839 840 841 842 842 843 843 843 843 843 844 844 843 843 843 843 843 843 843 842 842 840 840 839 839 839 838 837 837 837 837 837 836 836 836 835 835 835 835 835 835 834 834 834 834 833 833 832 831 830 830 829 829 827 826 825 825 825 824 824 824 823 821 820 819 818 818 817 816 815 814 813 812 812 810 809 808 807 806 806 805
836 837 838 838 839 840 840 841 842 842 842 842 842 842 842 842 842 842 841 841 842 841 841 841 840 839 838 838 838 837 837 837 836 836 836 836 835 835 835 834 834 834 834 834 834 834 833 834 833 832 832 831 830 829 828 828 828 827 826 825 825 825 824 824 823 823 822 822 821 820 819 818 816 816 815 814 813 812 811 810 808 807 806 806 805
835 836 837 837 839 839 839 840 840 840 841 841 841 841 841 841 841 840 839 840 840 840 840 839 838 838 837 837 837 836 836 836 835 835 835 834 834 834 834 833 833 833 832 833 833 833 833 833 832 831 831 830 829 828 827 826 826 826 826 826 825 825 824 823 823 823 823 823 821 820 820 818 817 816 815 814 813 813 812 811 809 807 806 806 805
834 835 835 836 837 837 838 838 838 839 839 839 840 840 840 840 839 838 838 838 838 838 839 838 837 837 836 836 836 835 835 835 835 834 835 834 834 833 833 832 832 832 831 832 832 832 832 831 831 830 829 828 827 826 826 826 825 825 825 825 824 824 824 823 823 823 823 823 822 821 820 819 817 817 816 815 814 814 813 812 810 808 807 807 806
832 833 833 834 835 835 835 836 836 837 838 838 838 839 838 838 838 837 837 837 837 837 837 837 837 836 835 835 835 835 834 835 834 834 834 834 833 833 832 832 832 831 831 831 831 831 831 830 830 829 828 827 826 826 825 825 825 825 825 824 824 824 823 823 823 823 823 823 822 821 820 819 818 817 817 815 815 814 813 813 812 810 809 808 807
831 832 832 832 833 833 833 833 833 834 836 836 836 837 837 836 836 836 836 836 836 836 836 835 836 835 834 834 834 834 834 834 833 833 833 833 833 832 832 831 831 830 830 830 830 830 830 829 829 828 827 826 825 825 825 825 825 825 825 824 824 823 823 824 824 824 823 823 822 821 820 820 819 818 817 816 815 814 814 813 813 812 810 809 808
831 831 831 831 831 830 830 831 831 832 834 835 835 835 835 835 835 835 835 835 834 835 834 834 834 834 834 834 833 833 833 832 832 832 832 831 831 831 831 830 830 829 829 829 829 829 828 828 827 826 825 825 824 824 824 824 825 825 824 824 824 824 823 824 824 824 823 822 822 821 820 820 819 818 817 816 815 814 814 813 813 813 811 809 809
830 830 830 830 830 830 830 830 831 832 833 833 834 834 834 834 833 833 833 833 833 833 833 833 833 833 832 832 832 831 831 831 830 830 830 830 830 829 829 829 829 828 828 828 827 827 827 827 826 825 824 824 823 823 824 823 823 824 824 824 824 824 823 824 823 823 823 822 821 821 820 820 820 819 817 817 816 815 814 814 813 813 812 811 810
829 829 829 829 829 829 830 830 831 831 832 832 832 833 832 832 832 831 831 831 831 831 831 831 831 831 830 830 830 829 829 829 828 828 828 828 828 827 827 827 827 827 827 826 826 826 826 825 825 824 823 823 822 822 822 822 822 823 823 823 823 823 823 823 823 823 823 822 821 821 820 819 820 819 818 817 816 815 814 814 814 814 813 812 810
828 828 828 828 829 829 829 830 830 830 830 831 831 831 831 831 830 830 829 829 829 829 828 828 829 828 828 828 828 827 827 827 827 826 826 826 825 825 825 825 825 825 825 825 824 824 824 824 823 823 822 821 821 821 821 821 821 822 822 823 822 822 822 822 822 822 823 822 821 821 820 819 819 819 818 817 816 815 815 814 814 814 814 813 811
827 827 827 828 828 828 829 829 829 829 829 829 829 830 830 829 829 828 827 827 826 826 825 825 825 825 825 826 825 825 825 825 824 824 824 824 823 823 823 823 823 823 822 822 822 822 822 822 821 821 821 820 820 820 820 820 820 820 821 821 821 821 821 821 821 821 822 822 821 821 820 820 819 819 818 817 816 816 815 814 814 814 814 814 812
825 826 826 826 827 827 827 828 828 828 828 828 828 828 828 827 827 826 825 824 824 823 822 822 822 823 823 823 823 823 823 823 822 822 822 821 821 821 820 820 820 820 820 820 819 819 819 819 819 819 819 819 819 819 819 819 819 819 819 820 820 820 820 820 820 820 821 821 821 820 820 819 819 819 818 817 817 816 815 815 815 814 814 814 813
824 824 824 825 825 826 826 826 826 826 826 826 826 826 826 826 825 824 823 822 822 821 820 820 820 820 820 820 820 820 820 820 820 820 820 819 819 818 818 818 818 818 818 817 817 816 816 816 817 817 817 817 817 817 817 817 817 817 818 818 818 819 819 820 820 820 820 820 820 820 819 819 819 819 818 817 816 816 816 815 815 814 814 813 813
822 822 823 824 824 824 824 824 824 824 825 824 824 824 824 823 823 822 821 821 820 819 819 818 818 818 818 817 818 819 818 818 818 817 817 816 816 815 815 815 815 815 815 815 815 814 814 814 814 814 814 815 815 815 816 816 816 816 816 816 816 817 818 818 818 819 819 819 819 819 818 818 818 818 817 817 816 816 816 815 815 815 814 813 813
820 820 821 822 822 822 822 822 822 822 822 822 822 822 821 821 820 820 819 818 818 817 816 816 816 815 815 815 815 816 816 816 815 815 814 813 812 812 812 812 812 812 812 812 812 812 812 812 812 812 812 812 812 813 813 814 814 814 814 814 815 815 816 816 817 817 818 818 818 818 817 817 817 817 816 816 816 816 816 816 816 815 815 814 814
818 819 819 819 820 820 820 820 820 820 820 819 819 819 818 818 817 817 816 816 815 814 814 813 813 813 813 813 813 813 813 813 813 812 811 810 809 809 808 808 809 809 809 809 809 809 809 809 809 810 810 810 810 810 811 811 812 812 812 813 813 814 814 815 815 816 816 817 817 817 817 816 817 817 816 816 816 816 816 816 815 814 814 814 814
815 816 816 816 817 817 817 817 818 817 817 817 817 816 816 815 815 815 815 814 813 813 812 811 810 810 810 810 810 810 810 810 810 809 809 807 806 806 806 806 806 806 806 806 806 806 806 806 806 807 807 807 807 808 808 809 810 810 810 811 812 812 812 813 813 813 814 815 816 816 816 816 816 816 816 816 816 815 815 815 814 814 814 814 814
813 814 814 814 814 814 814 814 815 814 814 814 814 813 813 813 812 813 812 811 811 811 810 809 808 808 808 808 808 808 808 807 807 807 806 805 805 804 804 804 804 803 803 803 803 803 803 804 804 805 805 805 805 805 806 806 807 808 808 809 809 810 810 810 811 811 812 813 814 815 815 816 815 815 816 816 816 815 814 814 814 813 813 813 813
810 811 811 811 811 811 811 811 811 811 811 811 811 811 810 810 810 810 810 809 808 808 807 806 806 806 805 805 805 805 805 805 805 804 803 803 803 802 802 803 802 802 801 801 801 801 801 801 802 802 802 802 803 803 803 803 804 805 806 806 806 807 807 807 808 809 810 810 811 812 813 815 815 815 815 815 815 814 813 813 813 813 813 813 812
807 807 808 809 808 809 809 809 808 808 808 808 808 808 807 807 808 807 806 806 805 805 804 804 804 803 803 802 803 803 803 802 802 802 801 801 800 800 801 800 800 800 800 799 799 799 799 799 799 800 800 800 800 800 800 801 801 802 803 803 803 804 804 804 805 807 807 808 809 810 811 812 813 814 814 814 813 812 812 812 812 813 812 812 812
805 805 805 805 805 806 806 805 805 805 805 805 805 805 805 805 805 804 803 803 802 802 802 802 801 801 800 799 799 799 799 799 799 799 798 798 798 798 798 798 798 798 799 798 798 797 797 797 797 797 797 797 797 797 798 798 798 798 800 800 801 801 801 802 803 804 805 805 806 808 809 810 811 812 812 812 812 811 811 811 811 811 811 811 811
803 803 803 803 802 802 802 802 802 802 802 802 803 802 802 802 801 801 800 799 799 799 799 798 798 797 797 796 796 795 795 796 796 795 795 795 795 795 796 795 795 796 797 797 796 795 795 795 794 794 794 794 794 794 795 795 795 796 797 797 798 799 799 799 800 801 802 803 804 805 806 806 808 809 810 810 810 810 810 810 810 810 810 811 811
801 801 801 801 800 800 799 799 799 799 799 799 799 799 799 799 798 797 797 796 796 796 795 794 794 793 793 793 793 792 792 792 792 791 792 792 792 792 793 793 792 793 793 794 793 793 792 792 792 791 791 791 792 792 792 792 793 793 794 795 796 796 797 797 798 798 799 800 801 802 803 804 805 806 807 808 809 809 809 809 810 809 809 810 810
798 798 798 798 798 797 797 796 796 796 795 796 796 796 796 796 795 795 794 794 793 792 791 790 790 789 789 789 789 789 788 788 788 788 788 788 788 789 789 789 789 790 790 790 790 790 789 789 789 789 789 789 788 789 790 790 790 791 791 792 793 794 794 795 796 796 797 798 799 800 801 802 803 804 804 806 807 807 808 808 809 809 809 809 809
796 795 795 795 795 795 794 793 793 793 792 793 793 793 792 792 791 791 791 790 789 789 788 787 786 785 785 785 785 785 785 785 784 784 784 784 785 785 785 785 786 786 786 786 786 786 787 787 787 787 786 786 786 786 786 787 787 788 788 789 790 791 792 793 794 794 795 796 797 798 800 800 801 802 803 804 805 806 806 807 808 808 808 808 808
793 793 793 793 792 792 792 791 791 790 790 790 789 789 788 787 787 787 787 787 786 785 784 783 782 781 781 781 781 781 781 781 781 781 781 781 781 781 781 781 781 781 781 781 782 782 783 783 784 784 783 783 783 783 783 783 784 784 785 786 787 788 789 791 792 793 793 794 795 796 797 798 799 800 801 802 803 804 805 806 806 806 807 807 807
790 790 790 790 789 789 789 788 788 787 787 786 786 785 785 784 783 783 783 783 782 781 780 779 779 778 778 777 777 777 778 778 778 778 778 777 778 778 777 777 777 777 777 777 777 778 779 779 781 781 781 780 779 780 779 780 780 781 781 783 784 785 786 788 789 790 791 792 793 794 795 796 797 798 799 800 801 802 803 804 804 804 805 806 806